Dewpoint
44 38 35 30 21 14 9 9 12 11 15 20 26 27 27 31 24 29 58 61 63 61 66 66 69 70 70 70 70 70 70 69 69 68 68 69 68 68 68 67 67 66 64 62 64 64 64 64 65
35 36 34 28 14 10 8 12 13 13 16 21 27 29 28 27 35 37 52 62 63 62 65 64 69 69 70 70 69 70 70 69 69 69 69 69 68 68 67 67 66 65 63 62 63 63 63 63 63
41 34 29 19 16 11 10 12 13 15 18 18 24 29 31 32 44 50 59 63 65 63 64 65 68 69 70 70 69 69 69 68 68 69 69 69 68 67 66 65 65 64 62 60 62 63 63 63 63
31 26 24 14 11 13 15 13 17 17 19 23 23 25 36 52 49 55 59 63 65 64 63 66 67 69 68 69 69 69 69 68 68 68 68 68 67 66 65 65 64 64 63 62 60 62 62 63 62
27 22 17 13 12 13 17 16 18 18 20 26 29 26 29 51 55 56 59 62 64 66 64 66 65 67 67 68 65 66 68 68 68 68 67 67 66 65 64 64 63 62 62 62 62 62 62 62 61
22 19 15 11 7 12 18 17 19 18 20 22 28 29 30 51 50 55 59 61 64 66 65 64 65 66 66 65 63 59 67 68 68 67 67 66 65 65 64 64 63 62 62 62 62 61 61 61 59
21 18 14 8 6 10 16 20 20 19 18 19 29 29 32 45 51 56 56 59 62 65 67 65 65 64 64 60 58 60 62 67 67 67 67 66 65 65 65 64 63 62 62 62 61 61 61 60 59
21 17 13 10 8 7 15 17 19 20 20 34 30 26 29 52 54 56 57 58 61 65 66 66 65 62 61 62 60 64 65 66 66 66 66 65 65 65 65 65 63 62 62 61 61 61 60 59 58
21 15 12 9 10 9 15 17 19 20 23 22 34 39 42 51 52 53 55 57 59 63 64 65 64 64 62 60 62 63 65 64 65 66 65 65 63 63 63 63 63 62 62 61 61 61 60 59 57
18 13 11 11 11 10 13 16 17 20 19 20 26 38 45 49 49 50 50 53 57 60 62 63 64 64 63 62 61 62 63 65 64 64 63 61 62 62 62 63 62 61 61 61 61 60 59 54 49
17 14 12 12 12 13 14 15 17 20 20 21 28 31 43 47 49 51 52 54 54 58 61 62 63 63 63 63 64 63 63 64 63 64 63 63 61 60 63 63 58 57 57 54 55 54 50 45 44
13 14 13 12 12 14 15 16 17 19 21 25 34 38 42 49 49 48 50 53 56 59 58 61 63 64 63 64 64 63 63 63 62 62 61 60 60 59 60 60 55 53 52 52 50 49 47 46 44
14 13 13 12 11 13 16 16 18 19 20 24 37 46 45 48 48 48 51 55 55 57 58 60 60 62 62 61 63 64 62 62 61 60 60 59 59 57 59 58 55 52 53 52 50 49 49 47 46
14 14 15 12 12 13 14 16 19 18 21 26 37 43 46 49 47 47 51 54 56 57 58 59 59 60 60 61 60 61 61 61 60 59 60 59 59 56 56 56 55 52 52 51 49 49 48 47 46
16 13 13 15 12 11 12 14 17 18 19 27 35 42 45 47 47 47 50 55 56 58 59 59 58 59 59 59 60 59 60 59 59 59 60 59 57 57 55 55 54 52 52 52 50 49 47 46 45
17 14 13 14 14 15 15 15 15 19 26 30 37 40 44 46 47 47 51 54 56 58 59 59 59 58 58 59 59 59 59 59 58 57 59 58 56 56 55 53 52 53 53 51 49 47 45 44 44
18 14 14 15 15 14 16 16 17 28 28 30 34 38 43 45 47 47 49 52 57 58 59 58 58 58 58 59 59 60 59 59 58 57 57 57 56 55 54 52 52 54 51 50 49 47 46 45 44
15 14 16 15 16 15 13 20 18 23 29 30 32 37 42 45 45 46 49 52 56 58 59 58 58 58 58 59 59 58 58 59 59 58 56 56 55 55 53 52 55 53 50 49 49 48 48 47 46
16 14 14 17 15 16 16 14 16 17 23 27 32 34 40 44 45 47 49 51 55 57 58 57 56 57 57 58 57 56 56 57 58 57 56 54 53 53 53 51 55 55 53 52 52 51 51 49 48
18 15 15 16 14 15 14 10 11 15 18 22 28 32 36 44 45 47 49 51 53 56 57 57 56 56 57 56 56 56 55 56 54 55 57 53 51 51 50 50 52 54 54 54 54 54 53 52 52
20 19 17 16 16 18 16 14 14 15 18 20 24 27 32 40 44 47 48 50 52 54 55 57 56 56 56 56 55 56 56 55 53 54 56 56 54 53 51 52 54 55 53 55 56 56 55 52 54
18 19 18 16 16 15 15 9 15 15 17 20 23 27 29 37 44 46 48 48 51 54 56 56 56 56 55 56 54 54 53 54 53 52 54 54 56 54 54 55 55 55 54 54 56 56 56 54 52
22 20 18 17 17 17 16 12 13 16 13 15 16 21 32 35 43 45 47 47 49 53 55 56 56 56 56 56 54 54 53 52 53 51 52 54 54 56 53 56 56 54 56 56 56 56 56 56 51
20 20 19 19 19 16 17 16 14 15 15 16 16 19 29 35 41 45 46 47 46 52 54 55 56 56 56 56 56 54 53 51 51 54 51 53 55 55 55 56 56 56 57 57 56 55 54 54 54
17 18 17 17 16 16 18 16 16 15 16 17 20 20 28 34 41 44 45 46 45 48 52 54 55 55 56 56 55 55 54 51 50 53 54 52 54 55 54 56 54 53 53 53 55 55 55 54 54
19 19 18 17 18 17 19 17 19 20 19 22 23 25 25 32 41 44 44 46 45 47 50 52 52 53 55 56 55 55 54 52 51 51 53 54 54 53 53 54 54 53 53 54 53 54 53 54 55
19 17 19 18 25 22 19 20 22 23 20 19 20 25 28 31 39 43 44 46 46 46 49 51 51 51 53 55 55 55 55 54 54 53 54 54 53 52 52 52 53 53 53 53 52 51 52 53 55
25 22 18 17 21 21 21 20 19 19 19 18 22 26 30 33 37 42 44 46 47 47 47 50 51 50 50 54 55 55 54 54 53 53 53 54 54 53 52 53 53 52 52 52 52 50 52 53 54
22 21 21 20 20 19 19 22 23 22 23 21 24 26 30 36 37 41 43 46 47 48 47 49 50 49 49 51 53 54 54 54 54 53 53 53 54 54 53 54 53 53 52 52 52 51 52 52 53
25 22 23 21 21 21 22 26 23 24 25 25 24 25 27 28 38 40 43 45 48 48 48 48 49 49 49 50 51 53 54 54 54 54 53 53 53 54 53 53 53 52 52 52 51 51 51 51 52
Wind_Speed
9 12 13 10 10 10 19 3 4 7 5 3 4 7 14 14 13 7 4 4 4 8 12 16 10 11 19 20 21 23 25 27 29 24 23 22 22 21 22 27 24 25 24 23 23 23 24 24 24
14 9 10 12 12 19 11 6 5 4 2 2 6 8 11 10 6 7 4 3 1 5 8 15 11 14 22 24 25 26 27 27 28 27 25 25 23 20 22 27 25 24 24 23 23 24 24 24 22
15 10 14 13 19 19 13 8 4 1 3 6 5 5 8 8 6 6 6 2 2 8 12 12 14 15 23 25 25 25 27 30 30 30 28 27 25 23 22 23 28 25 24 25 23 23 23 21 20
10 10 12 15 21 11 7 3 1 6 6 4 5 10 5 5 1 5 5 2 3 9 13 16 17 15 21 24 26 27 28 29 29 31 29 29 27 25 23 23 25 26 24 26 23 22 21 20 18
14 12 19 22 19 11 5 5 3 7 6 5 6 13 8 8 4 0 1 2 5 7 5 19 19 15 17 14 23 26 30 30 30 32 32 30 28 26 24 23 23 24 24 25 23 22 21 20 18
16 15 20 20 18 8 6 7 7 8 10 11 7 12 11 8 4 3 2 3 4 9 11 15 18 15 19 21 16 13 27 29 30 32 32 32 30 28 25 24 24 24 25 24 22 21 21 19 16
22 21 21 23 19 7 8 2 8 12 14 9 4 9 9 9 6 2 4 5 5 10 12 12 16 19 13 13 13 18 34 30 29 32 30 32 30 29 26 24 26 26 26 24 23 20 20 19 14
20 21 25 25 17 17 8 6 11 12 14 4 6 10 12 9 6 4 4 7 6 10 12 13 15 15 14 18 21 27 12 35 32 29 30 29 27 27 23 26 25 27 25 24 22 20 19 17 13
14 23 23 24 19 15 6 7 12 5 12 12 9 10 5 1 4 6 5 7 7 10 13 16 16 17 19 18 16 22 25 25 29 30 29 27 22 26 29 24 25 26 24 23 22 20 19 15 12
23 22 26 22 11 13 12 12 10 7 15 16 14 14 7 6 6 7 7 7 9 11 11 14 14 14 15 14 16 20 24 19 23 24 25 20 21 21 22 24 25 26 24 22 21 20 20 19 15
25 30 26 17 10 17 12 14 13 10 17 15 14 15 4 8 6 5 5 6 11 10 8 10 12 17 14 13 11 14 16 18 21 23 22 19 16 18 18 19 20 20 22 18 19 19 18 17 16
28 28 25 26 15 14 17 18 17 16 17 13 8 7 6 9 8 5 5 5 7 7 6 7 6 8 6 8 9 16 18 16 17 18 13 17 11 16 19 18 19 19 18 20 19 16 14 15 14
26 28 24 21 23 20 18 21 20 23 19 17 4 6 8 8 7 3 2 2 5 7 3 1 6 11 10 10 15 17 18 18 22 21 18 16 17 20 19 18 18 18 19 19 18 14 13 13 12
23 23 26 27 23 21 22 22 21 25 18 12 8 11 9 10 7 4 5 4 4 4 3 7 4 3 12 18 13 15 19 17 17 19 20 22 20 13 17 21 21 20 20 19 19 15 15 14 13
23 25 23 22 27 25 20 26 23 27 18 12 11 12 10 11 8 8 4 6 3 4 7 10 10 8 8 10 20 19 19 24 19 17 24 24 22 16 16 20 17 19 17 18 14 15 15 14 13
18 25 25 26 27 24 19 23 21 3 9 12 12 12 12 12 11 8 7 7 7 7 9 11 10 13 12 8 15 16 14 19 18 18 14 21 20 20 17 13 12 9 12 13 15 17 15 14 13
25 23 27 24 13 11 14 18 11 6 7 13 13 13 12 13 11 9 8 8 9 10 9 13 13 13 13 11 12 16 19 15 18 19 16 22 19 18 17 15 16 16 15 14 14 15 14 14 13
24 24 24 23 15 15 19 22 18 14 12 12 14 13 14 14 13 11 9 9 8 8 15 14 12 11 15 13 13 14 17 12 18 17 14 16 13 15 14 12 10 12 12 13 13 13 12 12 12
27 21 19 13 14 12 17 21 18 16 15 12 14 13 13 14 11 12 11 10 10 9 12 15 16 13 16 14 15 18 17 18 13 16 11 18 20 22 18 16 12 11 10 12 11 11 12 11 12
31 28 22 20 7 9 18 20 21 19 18 13 15 14 12 14 15 14 14 13 13 14 15 17 19 21 16 17 15 15 20 19 21 19 12 20 22 23 18 17 17 13 13 15 13 12 10 12 11
29 29 25 23 9 12 18 21 21 19 21 10 11 13 12 16 18 18 16 15 15 17 19 18 18 22 19 16 16 16 16 16 18 18 13 12 15 18 18 17 16 18 17 15 16 15 16 18 13
28 24 23 21 17 19 15 22 17 20 25 20 19 16 14 15 19 20 19 19 19 19 16 18 20 20 22 17 22 20 25 22 24 24 15 16 12 15 15 17 20 16 15 15 15 14 15 16 13
27 21 19 22 21 20 22 15 18 16 17 12 15 19 16 16 20 22 21 20 20 22 20 19 19 19 20 22 22 21 19 22 17 22 20 16 17 16 22 18 16 14 12 13 13 15 15 13 12
20 21 19 13 19 24 22 20 16 14 9 3 8 8 17 17 20 21 21 19 19 22 22 21 22 21 20 23 24 25 26 21 19 19 24 20 16 18 20 17 17 16 16 16 16 14 12 16 12
30 18 15 17 22 24 20 16 19 7 9 6 8 11 13 17 21 23 24 23 22 23 24 23 23 23 23 23 23 27 23 24 28 22 21 23 20 19 21 19 18 17 17 21 13 14 12 20 14
26 28 20 14 16 20 21 9 11 7 4 6 5 8 6 16 22 24 25 24 23 24 23 23 25 25 25 23 25 26 28 23 25 27 22 21 22 22 21 21 18 21 21 21 22 17 23 15 14
27 31 25 17 7 12 12 13 4 8 8 9 7 4 7 15 22 24 25 24 23 24 24 24 24 24 27 26 24 26 28 26 24 24 23 21 23 23 25 26 26 26 25 26 24 21 20 17 17
25 20 29 27 12 10 12 18 7 7 11 8 7 5 1 8 19 23 25 25 24 24 23 24 24 24 24 27 26 25 26 27 27 26 27 26 24 25 25 26 27 28 28 26 27 25 22 22 22
25 26 20 20 20 13 12 7 1 13 8 4 6 5 3 5 12 20 23 24 23 23 25 25 25 25 25 26 28 29 28 28 27 26 27 27 25 26 28 29 30 31 30 29 27 27 25 26 26
27 24 21 19 21 25 15 7 2 6 6 4 5 1 6 2 10 15 20 23 24 25 25 27 27 27 26 26 27 27 27 29 29 30 27 26 28 27 29 28 31 31 31 30 31 30 27 29 29
Wind_Direction
214 222 239 249 247 227 273 279 316 263 231 111 310 289 322 336 304 333 48 13 309 174 155 161 164 187 170 163 159 157 153 149 143 142 142 142 138 139 134 126 129 126 124 124 119 115 110 106 102
221 220 238 271 255 264 281 112 244 273 325 341 264 259 248 268 19 321 10 91 251 211 172 175 170 189 167 163 165 163 156 150 143 143 142 139 140 136 134 126 125 125 125 124 120 115 114 107 103
257 234 265 238 241 270 326 72 278 247 216 243 261 197 307 339 33 353 45 37 241 195 187 161 161 186 167 165 167 163 157 152 148 144 143 140 138 136 132 129 128 128 128 125 122 119 114 110 109
215 217 247 255 266 259 282 351 27 258 176 242 284 285 160 94 321 359 33 166 219 205 184 148 173 193 185 174 168 166 160 152 150 144 141 140 139 137 133 131 132 130 128 124 125 122 119 111 109
242 263 256 250 263 269 265 281 277 272 311 290 273 272 284 104 106 50 293 278 205 235 191 166 178 195 181 191 185 186 162 153 152 144 143 142 138 137 135 134 133 129 126 122 125 124 120 113 114
225 242 260 261 259 203 231 258 257 247 251 268 244 276 300 112 165 121 255 235 197 226 222 209 190 208 185 178 133 219 189 153 150 145 145 142 140 140 138 137 130 125 121 123 126 124 119 115 122
239 248 254 279 284 256 228 188 263 281 287 277 345 280 291 156 119 192 250 234 200 222 239 228 197 188 167 202 140 199 244 154 152 146 145 141 143 142 142 136 129 127 124 126 125 124 121 125 127
243 252 267 267 267 268 202 215 248 253 272 33 291 271 327 91 147 198 230 264 197 210 228 231 226 202 201 202 183 205 159 159 152 144 142 142 141 139 136 131 131 126 127 125 124 123 120 125 123
238 257 253 258 257 257 184 225 266 267 278 269 227 269 342 126 206 216 221 236 229 232 221 231 227 208 203 202 198 176 187 188 150 145 139 137 146 147 142 140 133 125 124 124 126 120 120 122 134
232 239 247 264 296 274 235 246 272 267 267 261 228 216 219 249 247 255 264 265 248 232 243 224 232 223 205 213 183 188 186 168 158 146 141 149 153 155 134 133 128 123 124 124 122 124 132 153 150
225 241 260 269 258 276 257 266 269 273 276 287 338 318 205 230 242 257 275 277 267 247 222 233 236 225 210 193 176 165 163 162 153 148 145 135 153 149 133 139 133 134 132 135 135 142 166 146 158
235 247 250 264 279 242 249 263 274 278 283 288 288 296 232 224 238 253 267 252 247 241 208 191 202 210 170 183 160 149 143 137 130 140 144 134 141 154 147 155 148 151 151 148 148 174 155 156 159
235 246 257 249 258 258 257 262 267 272 277 287 231 243 230 227 233 225 268 243 245 204 203 253 256 217 175 157 165 145 143 152 156 155 140 153 193 172 156 158 155 162 152 165 167 177 158 162 161
247 248 254 260 253 250 250 257 265 264 267 264 242 236 220 226 229 208 215 202 231 195 172 139 97 136 167 175 152 135 140 136 145 143 159 171 184 160 168 170 164 169 157 171 183 156 166 167 161
256 259 253 251 252 255 255 258 260 262 247 244 240 229 213 215 200 216 188 189 199 212 160 149 118 120 117 151 148 136 147 142 157 153 168 172 172 173 156 176 173 174 157 174 172 167 172 169 170
252 241 255 251 236 237 235 258 271 57 179 235 219 217 212 211 216 201 174 175 177 207 163 136 136 131 121 118 113 126 139 141 152 163 169 190 171 167 171 166 160 155 161 169 174 183 173 174 177
236 241 235 247 224 244 209 252 234 176 227 248 221 222 212 217 205 196 179 176 167 191 165 153 147 155 147 139 136 134 144 149 164 168 185 193 177 175 173 165 172 176 164 184 173 185 183 177 184
228 224 244 263 210 210 234 238 253 218 216 230 242 209 209 213 206 190 183 170 164 193 156 153 151 148 144 144 146 135 142 139 144 170 183 180 165 174 163 162 139 159 172 177 188 182 186 177 187
256 253 265 247 247 210 241 250 250 246 200 226 229 228 204 209 196 171 181 171 163 163 154 151 152 159 154 155 150 145 155 143 144 172 208 186 185 184 171 166 142 194 168 189 189 183 179 183 185
245 253 256 264 228 231 261 263 252 246 243 222 222 226 217 195 191 183 179 179 177 176 173 167 168 171 170 171 163 160 162 160 169 177 204 204 185 189 174 170 177 182 193 195 187 190 176 190 186
233 241 245 254 230 245 261 268 261 252 253 224 233 247 214 193 193 187 189 184 180 189 189 180 177 176 180 180 164 158 157 165 174 185 196 209 192 192 181 171 175 193 199 194 190 196 202 198 188
238 231 246 260 262 258 276 258 265 237 232 210 210 218 226 191 189 188 191 188 183 186 189 187 183 183 188 179 177 174 174 169 186 193 189 201 198 195 184 185 190 192 203 198 196 204 215 217 204
239 245 243 240 252 259 259 258 266 240 245 231 241 203 207 199 188 190 193 189 183 179 188 185 184 193 183 186 184 181 182 194 180 189 191 194 199 196 198 192 183 185 211 213 204 208 213 233 209
247 232 248 239 243 242 248 253 268 259 189 171 218 198 182 201 191 189 185 184 186 177 185 186 181 186 192 188 188 188 192 190 185 190 196 191 194 195 199 187 180 195 212 213 211 217 244 233 220
240 212 213 221 226 235 241 230 237 175 157 227 236 222 173 196 191 186 183 187 185 185 185 190 185 186 190 194 195 198 197 189 194 193 197 190 189 197 199 190 190 201 218 227 201 206 226 238 226
208 207 207 206 215 225 215 231 237 233 231 132 222 240 255 189 188 192 186 189 188 186 192 191 192 191 188 191 197 200 202 201 200 207 200 199 195 198 195 194 200 208 216 219 215 209 221 219 232
214 223 238 264 269 273 172 224 258 208 241 222 219 270 209 191 187 194 189 190 189 188 193 195 197 200 191 193 196 202 203 204 201 202 204 203 203 199 197 199 207 211 218 225 230 237 229 226 224
251 222 219 232 228 230 208 235 156 168 160 145 204 50 191 199 190 190 193 191 191 190 192 195 202 203 196 194 197 201 206 207 206 203 203 204 203 205 206 208 213 215 220 228 235 238 237 236 234
229 235 224 226 230 230 233 253 132 173 268 163 53 46 81 167 195 188 194 192 196 190 192 196 202 205 204 199 199 203 206 207 210 213 212 208 203 202 204 204 209 212 217 222 227 231 234 237 237
229 220 209 216 223 226 229 235 205 147 123 115 323 344 75 41 177 195 196 194 198 199 197 199 201 207 207 202 203 203 205 212 210 213 215 213 211 208 209 210 210 215 217 221 225 232 234 235 239